Location: Vancouver
(49.2500°N, 123.1330°W)
Time: 17:25:45
(UTC-07:00)

ISS - Visible Passes

Search period start: 30 August 2016 00:00
Search period end: 09 September 2016 00:00
Orbit: 402 x 406 km, 51.6° (Epoch: 30 August)

Date Brightness Start Highest point End Pass type
(mag) Time Alt. Az. Time Alt. Az. Time Alt. Az.
06 Sep -1.1 05:32:03 10° S 05:34:29 19° SE 05:36:55 10° E visible
07 Sep -0.6 04:41:13 10° SSE 04:42:15 12° SE 04:43:31 10° ESE visible
08 Sep -2.2 05:23:40 17° SSW 05:25:46 35° SSE 05:28:49 10° E visible
